Location: Bydgoszcz
(53.1640°N, 17.9142°E)
Time: 15:21:38
(UTC+02:00)

PCSat - Pass Details

Date: 19 April 2024
Orbit: 783 x 792 km, 67.1° (Epoch: 24 May)

Event Time Altitude Azimuth Distance (km) Brightness Sun altitude
Rises 04:30:51 0° 320° (NW) 3,301 12.7 -10.0°
Reaches altitude 10° 04:33:17 10° 322° (NW) 2,369 12.0 -9.7°
Maximum altitude 04:38:43 72° 47° (NE) 837 9.9 -9.0°
Drops below altitude 10° 04:44:08 10° 133° (SE) 2,357 12.2 -8.3°
Sets 04:46:33 0° 135° (SE) 3,283 13.0 -8.0°
